Погода в Нанюки

Кения     0°00′38″N   37°04′45″E
темп.,
°C
ветер,
м/с
пор.,
м/с
влажн.,
%
обл.,
%
осадки,
мм/ч
давл.,
гПа
погр.,
м
13 мая, чт
чт1300:00+15ю2394100 2.0 101879
03:00+14ююв2394100 2.1 101778
06:00+13ююв2294100 0.1 101739
09:00+16вюв0186100 0.1 1018138
12:00+22ссз226587 0.8 10151165
15:00+21ссв237186 4.5 1012890
18:00+17ю1288100 3.9 101448
21:00+15ю379792 6.0 1017221
14 мая, пт
пт1400:00+14ю359776 0.6 1017140
03:00+14ю249671 0.8 1015154
06:00+14ю469692 0.0 1017266
09:00+17ю228129 0.0 1018417
12:00+23сз125650 0.1 10151609
15:00+24с135293 0.2 10111744
18:00+18ю358515 0.7 1013142
21:00+15ю489513 0.8 1017205
15 мая, сб
сб1500:00+15ю5109686 0.0 1017350
03:00+13ю49925 0.0 1016231
06:00+12ююв359339 0.0 1017103
09:00+18ю347215 0.0 1017387
12:00+22юз22548 0.0 10141391
15:00+23юв325491 0.1 10111429
18:00+18ююв367792 0.8 1013159
21:00+15ю489211 0.9 1017233
16 мая, вс
вс1600:00+14ю489331 0.0 1017210
03:00+13ю38937 0.0 1015169
06:00+12ююв34918 0.0 101785
09:00+19ююз23705 0.0 1017389
12:00+23зюз21517 0.0 10141619
15:00+25вюв124461 0.3 10102144
18:00+18ю358154 2.1 1014104
21:00+15ююв379384 2.6 1016166
17 мая, пн
пн1700:00+14ююв3892100 0.0 1016179
03:00+13ю3693100 0.0 1015153
06:00+12ююв24926 0.0 101764
09:00+19ююз23745 0.0 1017398
12:00+23зсз115251 0.0 10141555
15:00+23вюв335484 0.2 10111510
18:00+18ююв247997 0.8 101485
21:00+15ююв369012 1.0 1017115